Temperature
15 14 14 15 15 15 15 15 15 15 15 15 15 16 16 16 16 17 17 17 17 17 17 17 18 18 18 18 18 18 18 18 18 18 18 18 18 18 18 18 18 18 18
14 14 14 14 14 14 14 15 15 15 15 15 15 15 16 16 16 16 17 17 17 17 17 17 17 17 18 18 18 18 18 18 18 18 18 18 18 18 18 18 18 17 17
14 14 14 14 14 14 14 14 14 15 15 15 15 15 15 16 16 16 16 17 17 17 17 17 17 17 18 18 18 18 18 18 18 18 18 18 18 18 18 18 17 17 17
14 14 14 14 14 14 14 14 14 14 15 15 15 15 15 15 16 16 16 16 17 17 17 17 17 17 17 18 18 18 18 18 18 18 18 18 18 18 18 18 17 17 17
14 13 13 13 14 14 14 14 14 14 14 15 15 15 15 15 16 16 16 16 16 17 17 17 17 17 17 17 17 18 18 18 18 18 18 18 18 18 18 18 17 17 17
13 13 13 13 13 13 13 14 14 14 14 15 15 15 15 15 15 16 16 16 16 16 17 17 17 17 17 17 17 17 17 18 18 18 18 18 18 18 18 18 17 17 17
13 13 13 13 13 13 13 13 14 14 14 15 15 15 15 15 15 15 16 16 16 16 16 17 17 17 17 17 17 17 17 17 18 18 18 18 18 18 17 17 17 17 17
13 13 13 13 13 13 13 13 13 14 14 14 14 15 15 15 15 15 16 16 16 16 16 17 17 17 17 17 17 17 17 17 17 17 17 17 17 17 17 17 17 17 17
13 13 13 13 13 13 13 13 13 13 14 14 14 14 15 15 15 15 15 15 16 16 16 16 16 17 17 17 17 17 17 17 17 17 17 17 17 17 17 17 17 17 17
13 13 13 13 13 13 13 13 13 13 13 14 14 14 14 14 15 15 15 15 15 16 16 16 16 16 17 17 17 17 17 17 17 17 17 17 17 17 17 17 17 17 17
13 13 13 13 13 13 13 13 13 13 13 13 14 14 14 14 14 15 15 15 15 15 16 16 16 16 16 16 16 17 17 17 17 17 17 17 17 17 17 17 17 17 17
13 13 13 13 13 13 13 13 13 13 13 13 13 13 14 14 14 14 14 14 15 15 15 15 16 16 16 16 16 16 16 16 16 16 16 16 17 17 17 17 17 17 17
13 13 13 13 13 13 13 13 13 13 13 13 13 13 13 13 14 14 14 14 14 15 15 15 15 15 15 16 16 16 16 16 16 16 16 16 16 16 16 16 17 17 17
13 13 13 13 13 13 13 13 13 13 13 13 13 13 13 13 13 14 14 14 14 14 14 14 15 15 15 15 15 15 16 16 16 16 16 16 16 16 16 16 16 16 16
14 13 13 13 13 13 13 13 13 13 13 13 13 13 13 13 13 13 13 14 14 14 14 14 14 14 15 15 15 15 15 15 15 15 16 16 16 16 16 16 16 16 16
14 14 13 13 13 13 13 13 13 13 13 13 13 13 13 13 13 13 13 13 13 14 13 14 14 14 14 14 15 15 15 15 15 15 15 15 16 16 16 16 16 16 16
14 14 14 13 13 13 13 13 13 13 13 13 13 13 13 13 13 13 13 13 13 13 13 13 14 14 14 14 14 14 14 15 15 15 15 15 15 15 15 16 16 16 16
14 14 14 14 13 13 13 13 13 13 13 13 13 13 13 12 13 13 13 13 13 13 13 13 13 13 14 14 14 14 14 14 14 15 15 15 15 15 15 15 15 15 15
14 14 14 14 14 14 14 13 13 13 13 13 13 13 13 13 13 12 12 13 13 13 13 13 13 13 13 13 13 13 14 14 14 14 14 14 14 15 15 15 15 15 15
14 14 14 14 14 14 14 14 13 13 13 13 13 13 13 13 13 13 13 12 12 13 13 13 13 13 13 13 13 13 13 13 14 14 14 14 14 14 14 14 14 15 15
14 14 14 14 14 14 14 14 14 13 13 13 13 13 13 13 13 13 13 12 12 12 12 12 12 12 13 13 13 13 13 13 13 13 14 14 14 14 14 14 14 14 14
15 14 14 14 14 14 14 14 14 14 13 13 13 13 13 13 13 13 12 12 12 12 12 12 12 12 12 12 12 12 12 13 13 13 13 14 14 14 14 14 14 14 14
15 15 15 14 14 14 14 14 14 14 13 13 13 13 13 13 13 13 12 12 12 12 12 12 12 12 12 12 12 12 12 12 12 13 13 13 13 13 14 14 14 14 14
15 15 15 15 15 14 14 14 14 14 14 13 13 13 13 13 13 13 12 12 12 12 12 12 12 12 12 12 12 12 12 12 12 12 12 12 13 13 13 13 13 13 13
15 15 15 15 15 14 14 14 14 14 13 13 13 13 13 13 13 13 13 12 12 12 12 12 12 12 12 12 12 11 11 11 12 12 12 12 12 12 13 13 13 13 13
15 15 15 15 15 14 14 14 14 13 13 13 13 13 13 13 13 13 13 12 12 12 12 12 12 12 11 11 11 11 11 11 11 11 11 11 11 11 12 13 13 13 13
Wind_Speed
2 2 2 3 3 3 2 2 2 2 3 2 3 3 3 4 5 5 5 7 9 8 9 10 11 11 11 12 12 11 12 12 11 11 11 12 12 12 12 12 12 12 12
2 3 3 3 3 3 3 2 2 2 2 2 3 3 3 3 4 4 5 6 9 9 9 10 11 12 12 12 12 12 12 13 12 12 12 12 13 13 13 13 13 12 12
4 3 3 3 3 4 4 3 2 2 2 2 2 3 2 2 3 3 4 5 6 8 10 11 12 13 13 13 13 13 13 13 13 13 13 13 14 14 13 13 13 13 12
5 3 3 3 3 4 3 2 2 2 2 2 2 3 2 2 2 3 3 4 4 5 8 11 12 13 13 13 13 14 14 14 14 14 14 14 14 14 14 13 13 13 13
5 3 2 3 3 3 3 3 2 1 2 3 3 2 1 2 2 3 3 3 3 4 6 9 11 12 13 13 13 14 14 14 15 15 15 15 15 15 15 14 14 14 13
4 3 2 3 3 3 3 3 2 2 1 2 2 2 2 2 1 2 2 2 1 3 4 5 7 9 12 12 13 13 14 14 15 15 15 15 15 15 15 14 15 14 14
3 3 2 3 3 3 3 3 2 2 2 2 2 3 3 2 0 1 1 1 0 1 2 3 4 5 7 11 12 13 13 14 15 16 16 16 16 16 16 15 15 15 15
1 2 2 2 3 2 4 4 3 2 2 2 2 2 3 4 3 1 0 1 0 1 1 2 3 4 4 5 8 11 12 13 15 16 16 16 17 17 16 16 16 15 15
0 1 2 2 2 2 2 2 2 2 2 2 2 2 2 0 2 3 2 1 0 0 1 1 2 3 5 5 6 9 11 12 14 15 16 16 16 17 17 17 16 16 15
1 1 1 2 2 2 2 2 2 1 1 1 2 1 1 2 1 1 2 2 0 0 0 1 1 2 3 4 6 8 11 11 13 14 15 16 16 16 17 17 17 17 16
2 1 1 1 2 1 1 3 2 2 1 1 1 1 2 2 2 2 1 3 2 2 1 1 1 1 2 3 3 5 9 10 11 12 13 14 15 15 16 16 17 17 17
2 2 1 0 0 0 1 2 2 2 2 2 2 2 1 1 1 2 1 1 1 2 2 1 0 1 1 3 3 4 7 9 10 10 11 11 13 14 15 16 17 17 17
2 3 2 1 1 1 1 1 2 2 2 2 1 1 1 0 1 2 2 0 1 2 2 2 1 0 1 2 2 4 5 8 9 9 10 11 11 13 14 15 16 17 17
4 4 3 2 2 2 0 1 1 1 1 2 2 1 1 1 1 1 2 2 1 2 2 2 2 1 0 1 1 3 3 6 8 9 9 10 10 11 13 14 14 15 16
4 4 3 2 2 2 1 1 1 1 1 1 1 2 1 1 1 1 1 2 3 1 1 2 2 2 1 1 1 2 2 4 6 8 8 9 10 10 11 12 13 15 15
4 3 3 2 2 2 1 1 0 0 1 1 0 1 1 1 1 1 1 1 2 3 1 1 1 1 1 1 1 1 3 4 6 7 8 9 10 11 12 12 13 14 14
4 4 4 3 3 3 2 1 1 1 1 0 1 1 0 1 1 1 1 2 2 2 2 2 2 1 1 2 1 1 2 3 4 7 7 9 10 11 12 12 13 13 14
4 4 4 3 3 3 3 3 2 2 2 1 1 1 1 1 1 1 1 1 1 1 2 0 2 2 2 1 1 1 1 2 3 6 8 9 9 10 11 12 13 13 14
4 3 4 4 4 4 3 3 3 2 3 3 3 3 2 2 1 0 1 1 0 1 2 2 1 1 1 2 2 2 2 2 3 4 5 6 7 9 10 11 12 12 13
5 4 5 5 5 4 4 3 3 3 2 2 3 3 3 4 4 3 2 1 1 1 1 1 0 1 1 2 2 2 2 2 2 3 3 4 4 6 8 9 10 11 13
6 5 5 5 5 4 4 5 4 3 2 2 2 3 4 5 6 5 3 3 2 2 1 1 0 1 1 2 1 1 1 3 3 1 2 2 2 3 4 7 9 10 11
6 5 5 5 5 5 7 8 6 4 3 3 3 3 3 4 5 5 5 5 5 4 3 2 1 1 2 1 1 1 1 2 3 2 2 3 2 3 4 5 8 10 11
6 5 5 5 5 6 8 8 8 5 4 4 4 3 3 3 4 3 3 4 4 4 6 5 4 3 3 3 2 1 1 2 3 3 1 3 2 3 4 6 9 10 10
7 6 6 6 5 6 8 8 7 4 3 4 5 5 4 3 4 5 3 2 2 2 3 3 4 4 4 4 4 3 3 2 3 3 2 2 2 3 4 4 8 8 8
7 7 6 6 6 6 7 8 7 3 3 3 3 4 4 4 5 6 5 3 1 2 2 2 4 3 3 3 3 2 0 0 2 3 1 1 2 3 3 3 4 5 6
8 7 6 6 7 6 7 8 8 4 3 3 2 2 4 4 4 5 5 5 3 2 0 1 1 2 2 2 1 2 3 2 1 2 2 1 2 2 3 3 2 4 4
Wind_Direction
4 345 341 353 344 333 313 301 302 298 292 275 260 243 236 234 231 230 241 241 227 220 212 203 197 194 190 184 183 182 178 174 171 168 165 163 159 154 149 146 144 141 138
24 11 7 359 346 344 333 309 299 291 287 277 275 265 240 234 233 225 228 243 236 226 217 209 204 200 197 191 186 184 181 179 175 173 169 166 164 160 156 154 152 150 147
42 28 18 360 340 351 360 358 336 332 323 309 290 280 263 235 224 225 223 229 237 235 227 220 211 205 200 195 190 186 184 182 179 176 172 170 169 168 165 162 160 158 155
48 35 20 351 345 1 359 352 347 345 330 313 292 285 274 244 239 230 221 225 228 237 234 230 220 208 201 197 194 189 187 185 183 180 176 174 173 171 169 169 168 167 164
43 39 16 342 356 6 3 350 359 342 319 313 292 277 275 243 234 238 220 222 224 235 233 233 224 211 203 200 196 193 191 189 187 185 181 179 177 175 174 175 175 174 172
39 38 11 351 4 13 0 353 336 330 301 303 313 330 298 261 218 230 235 216 212 240 228 221 214 211 208 203 199 196 195 191 189 188 186 184 182 181 180 180 180 179 178
40 38 15 3 10 14 352 350 349 344 335 350 26 358 349 350 278 232 221 178 189 272 223 201 196 198 209 211 205 199 199 196 192 191 190 189 188 187 186 185 185 185 185
23 38 28 10 6 13 7 8 18 11 350 20 68 58 7 358 359 8 63 136 187 253 228 187 170 186 200 199 204 202 203 200 196 195 194 193 192 191 191 191 192 192 190
252 36 23 24 15 28 9 360 13 40 7 353 44 110 107 308 327 350 10 31 72 249 252 153 167 178 194 196 199 208 207 204 202 200 199 197 196 195 195 196 196 196 195
259 323 21 31 25 20 5 347 34 37 69 14 351 22 126 163 135 0 344 347 2 159 220 188 185 176 183 182 195 204 206 204 205 205 203 199 199 200 199 200 201 201 201
282 285 337 47 39 22 7 10 18 28 55 83 43 18 30 44 70 115 16 339 346 336 324 164 170 162 166 165 182 202 204 204 207 210 208 206 204 204 204 205 206 206 206
290 288 278 28 18 349 349 3 11 35 46 63 63 62 84 80 66 104 124 309 316 317 334 359 129 173 175 167 185 196 205 209 211 213 213 210 210 210 211 211 211 212 212
243 256 255 255 255 272 313 32 41 36 53 70 72 65 76 121 168 143 128 110 9 336 353 356 329 151 176 172 183 188 204 211 214 217 219 217 217 216 218 220 220 219 217
219 226 231 241 249 258 358 61 57 36 74 75 60 63 71 26 72 124 142 131 69 10 15 337 336 350 59 172 191 178 205 214 218 221 223 223 222 223 225 226 228 228 227
220 218 222 233 246 244 197 113 75 36 72 66 59 61 68 34 53 77 115 137 141 113 349 318 339 331 327 221 208 203 208 215 223 231 233 233 229 229 232 233 235 236 236
216 211 225 235 232 235 219 171 181 340 68 35 105 83 52 36 44 56 82 101 127 146 175 291 289 302 312 300 222 234 247 252 247 247 245 242 235 234 237 238 240 242 239
211 215 219 214 213 214 212 197 233 210 139 17 44 108 100 87 79 59 71 82 89 128 154 303 319 339 9 5 343 329 281 264 269 263 259 251 242 239 239 241 242 243 242
215 215 204 200 206 206 201 195 217 208 194 193 191 140 216 136 94 71 80 80 88 137 149 196 336 353 357 324 331 334 324 306 285 274 267 260 252 246 245 245 245 246 245
211 210 193 199 203 199 196 202 201 203 207 208 201 189 198 152 148 153 112 96 85 99 129 146 307 332 332 346 14 2 357 338 312 295 280 270 262 255 251 250 249 247 247
199 204 202 202 202 201 196 194 188 193 210 219 214 209 201 186 187 182 163 159 134 99 96 109 2 339 338 337 31 11 348 337 318 317 314 302 290 275 264 259 255 252 249
203 200 197 204 209 207 207 195 189 188 195 216 230 232 225 213 203 190 178 178 151 129 104 102 10 354 337 354 349 327 321 319 312 315 330 315 301 283 276 270 263 258 253
207 201 206 206 214 222 218 204 189 190 194 202 231 250 249 236 227 213 200 187 174 165 169 170 193 225 264 251 254 302 328 358 318 314 342 301 276 270 263 263 259 258 253
201 208 216 211 219 232 228 217 205 192 204 214 219 229 240 226 213 208 226 216 214 206 192 179 191 219 227 225 205 237 233 232 252 271 324 290 288 276 272 273 264 262 260
201 210 216 214 221 237 232 227 217 200 219 231 221 216 216 231 214 191 188 196 244 263 235 201 203 222 231 227 205 204 219 260 279 277 208 254 290 281 288 287 273 263 259
202 206 207 208 214 239 236 222 207 189 219 244 238 215 204 212 218 189 168 177 208 291 290 226 210 227 251 243 195 158 181 340 312 304 272 225 296 307 299 292 300 290 281
202 202 208 208 208 224 233 222 200 180 199 226 237 223 212 204 203 180 169 172 187 229 270 30 22 358 354 354 341 187 189 191 249 293 310 320 304 335 322 309 312 319 305
Height
1509 1508 1507 1506 1505 1504 1503 1503 1503 1502 1502 1502 1502 1503 1504 1505 1506 1508 1510 1511 1513 1515 1516 1517 1518 1520 1522 1523 1524 1526 1528 1529 1531 1533 1534 1536 1538 1539 1540 1542 1543 1544 1545
1509 1507 1506 1505 1504 1503 1502 1501 1501 1500 1500 1500 1500 1501 1502 1503 1504 1505 1507 1509 1511 1513 1514 1516 1517 1519 1520 1522 1523 1525 1527 1529 1531 1532 1534 1536 1538 1539 1541 1542 1544 1545 1546
1508 1506 1505 1503 1502 1501 1500 1500 1499 1499 1498 1498 1498 1499 1500 1500 1501 1503 1505 1507 1509 1510 1512 1514 1515 1517 1519 1520 1522 1524 1526 1528 1530 1532 1534 1535 1537 1539 1541 1542 1544 1545 1547
1507 1505 1504 1502 1501 1500 1499 1498 1497 1497 1497 1496 1496 1497 1498 1499 1499 1501 1503 1505 1506 1508 1510 1512 1513 1515 1517 1519 1521 1523 1525 1527 1529 1531 1533 1535 1537 1539 1540 1542 1544 1545 1547
1506 1504 1503 1501 1500 1498 1497 1496 1496 1495 1495 1495 1495 1495 1496 1497 1498 1499 1501 1503 1504 1506 1508 1510 1512 1514 1516 1517 1519 1522 1524 1526 1528 1530 1532 1534 1536 1538 1540 1542 1543 1545 1546
1505 1503 1502 1501 1499 1498 1496 1495 1494 1494 1493 1493 1493 1494 1494 1495 1496 1497 1499 1500 1502 1504 1506 1508 1510 1512 1514 1516 1518 1520 1522 1524 1526 1528 1530 1533 1535 1537 1539 1540 1542 1544 1546
1505 1503 1501 1500 1498 1497 1496 1495 1494 1493 1493 1492 1493 1493 1493 1494 1495 1496 1497 1499 1501 1503 1505 1507 1508 1510 1512 1514 1516 1518 1520 1523 1525 1527 1529 1531 1533 1535 1537 1539 1541 1543 1545
1504 1503 1501 1500 1498 1497 1496 1495 1494 1493 1492 1492 1492 1492 1493 1495 1494 1495 1496 1498 1499 1501 1503 1505 1507 1509 1511 1513 1515 1517 1519 1521 1523 1525 1527 1530 1532 1534 1536 1538 1540 1542 1543
1504 1502 1501 1500 1498 1497 1495 1494 1493 1493 1492 1492 1492 1493 1493 1493 1494 1495 1496 1497 1498 1500 1501 1503 1505 1507 1509 1511 1513 1515 1517 1519 1521 1523 1525 1528 1530 1532 1534 1536 1538 1540 1542
1504 1503 1501 1500 1498 1497 1495 1494 1494 1493 1493 1492 1492 1492 1493 1493 1494 1495 1496 1497 1498 1499 1501 1502 1503 1504 1507 1509 1511 1513 1515 1517 1519 1521 1524 1526 1528 1530 1532 1534 1536 1538 1540
1504 1503 1501 1500 1498 1497 1496 1495 1494 1493 1493 1492 1492 1492 1493 1493 1494 1494 1495 1496 1497 1498 1499 1500 1502 1503 1505 1507 1509 1511 1513 1515 1517 1519 1521 1523 1525 1527 1529 1532 1534 1535 1537
1504 1502 1501 1500 1498 1497 1496 1495 1494 1493 1493 1493 1492 1492 1492 1493 1493 1494 1495 1495 1496 1497 1498 1499 1500 1502 1503 1505 1507 1509 1511 1513 1515 1517 1519 1521 1523 1525 1527 1529 1531 1533 1535
1503 1502 1501 1500 1498 1497 1496 1495 1494 1494 1493 1493 1493 1492 1493 1493 1493 1494 1494 1494 1495 1496 1497 1498 1499 1500 1502 1503 1505 1507 1509 1511 1512 1514 1516 1518 1520 1522 1524 1526 1528 1530 1531
1502 1502 1501 1500 1498 1497 1496 1495 1494 1494 1493 1493 1493 1493 1493 1493 1493 1493 1494 1494 1495 1495 1496 1497 1498 1499 1500 1501 1503 1504 1506 1508 1510 1512 1513 1515 1517 1519 1521 1522 1524 1526 1528
1502 1501 1500 1499 1498 1497 1496 1495 1494 1494 1493 1493 1493 1493 1493 1493 1493 1493 1493 1494 1495 1495 1495 1496 1497 1498 1499 1500 1501 1502 1504 1505 1507 1508 1510 1512 1513 1515 1517 1519 1520 1522 1524
1501 1500 1500 1499 1498 1497 1496 1496 1495 1494 1493 1493 1493 1493 1492 1492 1492 1492 1493 1493 1494 1494 1495 1496 1496 1497 1497 1498 1499 1500 1502 1503 1504 1506 1507 1508 1510 1511 1513 1514 1516 1518 1519
1500 1500 1499 1498 1498 1497 1496 1496 1495 1494 1494 1493 1492 1492 1492 1492 1492 1492 1492 1492 1493 1493 1494 1495 1495 1496 1496 1497 1497 1498 1499 1500 1501 1502 1503 1504 1506 1507 1508 1510 1511 1513 1514
1499 1498 1498 1498 1497 1497 1496 1495 1495 1494 1494 1493 1492 1492 1492 1491 1491 1491 1491 1492 1492 1492 1493 1493 1494 1494 1494 1495 1496 1496 1497 1497 1498 1499 1500 1501 1502 1503 1504 1505 1506 1508 1509
1497 1497 1497 1497 1496 1496 1495 1495 1494 1494 1493 1493 1492 1492 1492 1491 1491 1491 1490 1491 1491 1491 1492 1492 1492 1493 1493 1493 1494 1494 1494 1495 1495 1496 1496 1497 1498 1499 1500 1501 1502 1503 1504
1495 1495 1495 1495 1495 1495 1495 1494 1494 1493 1493 1492 1492 1492 1491 1491 1490 1490 1490 1490 1490 1490 1490 1491 1491 1491 1491 1491 1492 1492 1492 1493 1493 1493 1493 1493 1494 1495 1496 1496 1497 1498 1499
1493 1493 1494 1494 1494 1494 1493 1493 1493 1492 1492 1492 1491 1491 1491 1490 1490 1490 1490 1489 1489 1489 1489 1489 1489 1489 1490 1490 1490 1490 1490 1490 1490 1490 1490 1490 1490 1491 1491 1492 1492 1493 1494
1490 1491 1491 1491 1492 1492 1492 1491 1491 1491 1491 1490 1490 1490 1490 1489 1489 1489 1489 1489 1488 1488 1488 1488 1488 1488 1488 1488 1488 1488 1488 1488 1487 1488 1487 1487 1487 1487 1487 1487 1488 1488 1489
1487 1488 1488 1489 1489 1489 1489 1489 1489 1489 1488 1488 1488 1488 1488 1488 1488 1487 1487 1487 1487 1487 1487 1487 1487 1487 1486 1486 1486 1486 1486 1486 1485 1485 1484 1483 1484 1483 1484 1483 1484 1484 1484
1484 1484 1485 1485 1486 1486 1486 1486 1486 1486 1486 1486 1486 1486 1486 1486 1486 1486 1486 1486 1486 1486 1485 1485 1485 1485 1485 1484 1484 1484 1484 1483 1483 1482 1482 1481 1480 1480 1480 1480 1480 1480 1480
1480 1480 1481 1482 1482 1483 1483 1483 1483 1483 1482 1482 1482 1482 1483 1483 1483 1483 1484 1484 1484 1484 1484 1483 1483 1483 1483 1482 1482 1482 1481 1481 1480 1480 1479 1479 1477 1477 1476 1476 1476 1476 1475
1475 1476 1477 1478 1478 1478 1479 1479 1479 1479 1479 1479 1479 1479 1480 1480 1480 1481 1481 1481 1481 1481 1481 1481 1481 1481 1481 1480 1480 1480 1479 1479 1478 1478 1477 1477 1476 1475 1473 1472 1472 1472 1472